Theta_e
321 321 321 321 322 322 321 322 322 321 322 322 322 323 323 323 321 314 305 315 319 336 328 318 313 310 306 303 302 308 304 300 303 305 311 319 320 325 328 323 325 328 326 329 332
319 319 320 320 321 321 321 321 321 321 322 322 322 322 322 322 310 306 322 337 339 337 309 306 304 306 302 301 301 305 303 305 313 314 315 320 321 324 321 320 321 323 327 329 330
319 319 319 320 321 321 320 320 321 321 322 322 322 322 322 320 304 309 338 340 340 331 310 309 308 306 303 315 317 312 305 314 316 320 322 319 319 324 319 315 320 320 323 325 325
318 319 319 319 319 320 320 320 320 320 321 321 321 321 322 312 297 309 345 342 341 315 309 306 306 316 314 312 319 314 318 318 319 322 321 318 321 318 319 319 323 323 324 323 321
318 318 319 318 319 319 319 319 319 319 320 320 321 322 312 302 305 318 342 339 319 309 306 305 314 315 313 315 316 315 317 320 320 319 318 320 317 317 318 323 325 323 322 320 320
317 318 318 318 318 318 318 318 318 318 319 320 322 323 306 298 311 324 316 313 309 305 307 305 310 320 314 313 315 319 318 318 319 318 318 316 316 316 318 322 320 320 317 318 319
318 318 318 318 318 318 318 317 316 318 319 321 322 320 305 304 313 315 311 307 310 309 306 309 323 314 316 316 321 320 313 316 317 317 315 317 311 312 319 320 317 316 316 316 318
318 317 317 318 318 318 318 317 317 318 320 321 323 312 305 310 315 309 308 309 309 309 309 310 310 313 317 321 317 314 311 306 312 316 317 313 305 315 319 317 314 314 314 314 314
317 317 317 317 317 318 317 316 317 319 320 322 312 306 305 319 312 314 310 309 308 308 308 311 304 310 311 306 300 302 296 303 311 312 314 310 306 314 318 316 313 311 310 311 311
317 316 316 316 317 316 315 316 317 317 319 321 317 304 308 309 312 310 310 310 308 307 306 303 299 295 298 294 289 293 298 300 301 309 310 307 305 310 314 315 311 309 309 309 311
316 316 315 315 316 315 310 309 309 307 309 306 307 307 308 314 312 307 310 308 306 304 297 300 297 296 297 297 302 305 302 302 307 309 308 304 304 307 312 312 308 307 308 309 310
315 315 315 315 315 314 306 306 311 308 304 311 312 311 314 313 308 308 311 303 303 299 300 298 295 300 306 309 308 306 302 302 304 307 306 304 304 309 312 312 310 310 310 310 310
314 314 315 315 314 306 303 306 312 307 302 308 311 312 310 313 308 308 309 304 301 299 298 295 298 304 307 305 304 302 302 301 301 305 306 305 302 306 312 313 314 315 313 310 310
314 314 314 314 308 305 305 311 305 308 299 302 307 309 308 308 306 311 308 306 303 300 301 302 306 304 302 302 301 295 306 306 303 300 295 304 292 302 304 307 311 313 311 309 311
313 314 313 313 301 301 306 303 304 312 288 306 310 310 306 305 305 310 311 311 305 305 304 301 303 303 302 302 303 302 309 306 304 298 297 297 295 298 304 304 307 310 311 309 308
313 313 313 308 304 303 305 306 313 301 292 304 309 302 302 304 306 311 313 313 311 306 307 304 309 307 304 305 308 310 302 300 294 294 289 295 293 293 300 303 307 306 307 309 308
312 312 310 310 302 304 307 311 300 294 306 304 302 302 303 307 309 310 308 306 301 296 297 303 304 308 308 304 307 301 292 286 284 286 286 296 292 293 301 307 308 306 307 308 305
310 309 307 311 300 306 311 306 294 302 304 311 308 301 301 308 308 308 307 303 306 301 298 296 295 303 307 302 299 295 293 288 283 283 287 296 291 294 305 309 308 308 305 301 298
307 305 308 309 309 307 307 297 298 303 310 307 306 302 302 306 307 306 303 303 306 304 298 296 297 306 305 303 301 296 293 294 291 290 288 291 298 304 307 305 305 304 302 297 297
306 308 309 313 309 308 302 298 302 309 311 308 300 303 299 302 303 303 301 305 306 307 305 301 293 303 306 304 303 299 299 290 289 284 282 289 291 291 301 300 303 302 298 296 296
311 308 313 311 309 303 296 298 304 310 310 306 303 301 301 303 303 300 300 304 307 307 306 299 295 297 301 298 294 295 293 293 292 289 285 283 287 297 301 303 302 302 298 296 295
309 303 314 308 301 297 297 302 306 307 308 307 305 304 302 304 301 300 301 304 310 307 299 302 296 293 295 301 301 297 293 291 288 287 288 286 287 299 302 305 304 300 297 297 297
308 307 315 308 296 299 302 306 308 307 307 306 306 307 306 301 298 303 304 308 310 307 300 301 292 289 292 295 299 295 296 294 292 291 287 285 287 300 301 298 297 295 296 297 298
307 300 306 306 302 300 299 301 303 310 308 307 305 307 304 301 302 300 302 308 311 310 315 307 295 291 288 291 295 295 297 297 292 287 288 289 292 296 297 295 294 296 297 298 298
307 304 307 299 301 300 301 303 303 304 308 306 303 303 302 298 299 299 303 304 309 312 305 300 293 294 295 297 298 296 295 296 294 293 289 292 293 294 296 295 294 296 297 298 298
308 307 307 304 301 301 302 303 305 306 304 303 301 303 301 297 297 295 299 300 301 305 301 300 294 295 295 299 299 295 297 296 296 294 293 293 292 295 296 296 295 296 297 298 298
310 312 309 303 305 302 302 304 307 306 307 308 306 302 300 303 303 302 305 304 303 301 299 298 296 295 292 299 298 292 297 296 296 296 294 290 294 296 295 295 294 295 297 299 298
Wind_Speed
10 10 10 10 10 10 9 8 9 10 10 12 10 10 11 12 13 2 4 6 6 8 7 7 3 3 3 3 3 3 6 2 2 4 6 2 6 12 10 14 10 8 9 10 9
9 10 11 10 10 9 8 8 9 10 9 10 10 10 10 11 2 3 7 8 8 10 5 6 5 7 3 3 2 6 4 5 1 4 8 9 10 9 7 11 11 11 13 14 11
12 12 12 10 10 8 8 9 9 8 9 10 9 10 10 6 2 3 3 10 7 5 2 2 4 3 5 4 4 3 3 4 12 17 14 13 19 5 12 8 8 8 12 11 12
13 13 11 10 10 9 8 9 8 9 9 9 10 11 11 2 4 3 2 9 7 4 1 5 4 4 5 5 3 9 13 8 5 8 6 7 10 13 13 9 11 11 10 10 12
11 11 10 9 9 9 8 8 8 9 8 9 10 11 1 3 5 2 7 8 5 4 1 2 5 5 6 6 5 9 6 13 17 22 20 18 17 11 11 11 11 11 11 11 10
9 10 9 9 9 9 8 8 8 8 7 8 10 11 2 3 2 4 6 6 3 1 6 3 5 5 9 7 10 11 15 11 9 12 9 12 6 4 8 10 10 10 9 8 8
9 9 9 9 10 9 9 8 7 8 7 8 8 3 3 7 3 4 5 2 6 4 1 1 6 6 6 11 5 10 15 10 7 6 10 10 7 6 10 8 9 8 7 7 6
10 10 10 10 10 10 8 7 7 6 7 6 3 1 5 3 1 3 2 4 4 4 3 6 8 10 8 10 5 6 5 5 3 2 4 0 5 9 7 8 8 6 4 4 3
11 10 10 10 10 9 8 7 6 5 3 4 1 1 8 5 1 2 5 3 2 4 1 6 6 7 4 7 6 2 4 7 4 2 2 1 5 7 2 6 6 4 4 2 1
12 10 10 9 9 10 8 4 2 4 2 3 1 2 4 4 3 3 2 1 1 2 4 4 6 6 3 4 6 8 7 4 4 4 6 7 9 3 2 6 5 5 3 2 3
13 11 9 8 8 8 5 2 5 3 1 4 4 4 4 7 2 1 3 3 1 7 2 3 6 3 11 6 6 11 9 12 5 4 8 6 5 4 2 4 4 4 3 3 3
13 11 9 7 6 4 2 4 4 2 7 4 3 6 6 2 3 3 5 2 2 3 1 7 2 4 11 14 17 16 19 9 5 4 6 3 4 2 2 2 5 5 4 4 3
11 10 9 6 3 1 1 4 3 2 3 8 5 4 3 6 4 5 7 2 3 3 3 4 4 1 9 10 10 5 8 12 10 8 6 9 2 2 1 4 5 5 3 3 3
11 8 8 5 2 1 3 1 4 3 6 7 4 3 3 3 2 1 1 3 3 5 6 6 5 7 6 5 5 0 10 14 20 8 6 4 2 4 4 4 5 4 1 4 3
10 7 5 2 2 1 1 5 1 4 5 5 7 4 2 4 2 9 3 7 3 2 7 2 3 5 6 2 4 3 12 13 9 5 7 2 1 3 4 4 4 5 5 5 2
9 5 1 1 1 5 7 4 4 7 1 5 4 3 4 7 7 5 8 9 3 6 6 2 2 3 3 5 14 19 14 8 6 3 3 3 3 3 4 5 1 2 4 4 3
8 4 2 2 2 5 4 5 7 5 4 5 2 5 5 6 6 7 6 8 3 4 6 6 4 6 3 10 11 7 6 3 3 2 3 2 3 5 5 4 4 7 7 2 4
7 0 4 4 3 7 4 7 3 3 4 4 4 5 5 3 6 7 4 6 6 4 4 3 6 7 6 1 6 2 6 6 5 3 3 2 3 4 1 5 4 5 5 6 6
4 0 2 4 2 3 7 4 6 3 3 2 4 7 6 5 5 5 5 4 5 5 5 3 2 3 6 3 1 2 4 3 8 3 3 2 1 2 4 3 3 6 6 6 5
3 3 3 5 1 6 7 4 3 4 3 5 5 3 4 6 5 5 6 2 5 7 1 1 3 3 5 5 7 7 4 2 4 4 2 2 3 5 4 5 5 6 7 6 4
4 4 4 3 3 7 3 5 4 4 3 6 3 5 5 3 5 3 3 2 4 5 7 2 4 6 4 6 3 5 4 7 6 3 5 2 5 4 9 10 11 7 7 7 6
3 4 3 2 5 1 1 5 5 6 6 7 6 5 4 5 5 3 3 2 8 2 3 2 5 3 2 5 2 4 3 3 6 1 2 3 5 5 7 9 6 6 7 7 5
3 1 3 5 3 3 4 2 6 8 8 6 7 6 4 3 5 2 0 1 7 5 2 2 4 3 7 7 7 6 4 3 5 4 2 3 5 3 5 7 5 7 8 6 4
4 3 6 6 0 4 3 4 5 5 6 6 4 5 5 8 7 3 3 3 4 4 8 8 4 4 6 3 2 6 6 4 5 5 2 2 4 3 3 5 4 7 7 5 3
4 1 2 2 5 2 4 3 4 6 5 9 6 6 2 4 5 4 5 7 5 6 5 6 6 4 8 10 14 9 8 10 6 2 4 2 1 4 4 5 4 6 4 4 3
5 4 3 2 2 2 5 5 4 2 5 6 9 3 5 5 2 1 2 5 2 7 5 5 3 3 8 9 14 13 10 7 6 4 4 5 2 3 2 5 5 5 4 3 3
0 2 5 4 5 4 1 2 1 3 7 4 4 4 8 4 4 5 9 6 3 2 4 5 4 5 2 5 2 7 5 3 3 4 3 5 3 2 1 2 4 4 3 3 1
Wind_Direction
314 321 321 312 299 293 295 303 311 307 298 297 307 323 322 317 311 126 245 199 187 141 136 126 121 117 58 68 83 109 72 213 101 119 105 53 82 55 82 74 54 48 73 90 75
316 328 315 304 291 293 309 311 300 292 295 301 317 324 321 320 335 262 253 167 142 157 128 172 151 149 73 90 38 85 113 165 114 105 87 81 92 116 102 90 80 83 76 77 70
343 329 309 304 298 308 305 294 288 303 304 310 322 325 316 308 329 263 337 176 161 159 145 106 102 94 71 61 22 64 87 98 63 103 94 88 57 66 115 70 63 90 85 75 62
328 309 301 302 308 304 294 291 308 311 313 319 329 318 309 229 97 302 116 136 149 143 270 119 88 75 82 77 29 96 33 67 82 65 79 75 84 72 71 91 99 91 93 83 64
291 295 300 308 301 293 294 298 311 307 320 327 323 320 307 7 259 270 125 134 152 159 304 22 94 119 96 91 81 67 84 67 94 89 85 93 80 97 102 103 95 96 92 87 86
305 303 309 313 298 300 297 303 310 309 326 325 322 308 34 26 127 182 151 153 113 51 335 28 132 129 84 58 53 104 90 91 80 80 62 100 113 75 84 91 85 79 77 80 79
306 304 326 321 305 300 305 314 307 320 324 317 317 314 72 224 89 199 187 143 146 165 101 64 117 65 104 95 123 103 91 63 18 87 118 111 46 74 98 108 96 85 97 95 81
322 331 329 317 303 302 305 305 307 314 302 301 310 274 248 234 150 161 165 294 172 208 203 152 99 96 91 117 59 81 60 96 251 301 195 130 142 119 127 114 107 114 118 105 106
325 323 317 311 307 303 295 307 308 292 257 264 80 39 285 324 230 212 178 239 191 128 282 99 69 95 61 94 75 299 139 137 171 317 131 41 143 114 126 131 139 128 115 124 156
321 322 316 311 306 294 308 273 285 301 194 194 239 14 285 304 289 193 195 168 314 9 80 80 66 93 54 110 211 180 124 58 93 357 77 79 94 86 357 148 123 122 123 197 237
326 321 310 305 299 327 10 57 12 3 122 213 229 256 285 278 238 198 114 113 107 47 91 7 77 185 196 194 94 98 88 112 124 85 96 85 104 115 275 99 125 154 177 212 260
321 322 316 307 317 326 77 77 114 228 314 232 234 275 266 258 14 273 133 134 61 23 46 24 5 288 87 110 107 106 118 114 43 66 90 107 98 205 209 149 194 173 204 215 255
322 330 305 309 312 358 81 232 113 73 100 303 203 206 206 137 210 256 140 124 94 355 13 128 279 122 120 131 124 170 128 162 142 114 64 143 104 121 314 158 184 167 164 199 254
331 318 306 323 345 253 283 314 319 180 68 295 337 304 118 171 356 328 227 133 64 137 115 81 337 95 73 78 91 281 136 140 140 137 157 178 197 211 180 256 186 193 169 203 232
321 316 325 359 227 20 314 313 206 65 81 287 296 291 76 107 305 354 10 37 45 114 111 142 71 72 73 266 127 113 124 128 110 84 106 216 230 138 115 252 242 194 213 213 225
318 324 330 134 17 258 322 338 52 41 13 332 297 13 29 15 14 351 30 37 75 63 41 83 39 80 177 50 109 123 91 46 40 74 66 193 156 257 183 217 128 153 214 207 221
331 313 203 342 240 322 324 46 36 97 345 311 286 73 99 12 36 26 45 28 53 72 13 6 356 327 81 94 130 80 114 75 315 8 216 183 102 242 234 238 181 179 215 190 91
326 124 242 238 296 1 39 47 75 258 251 310 358 70 80 63 16 8 73 27 9 43 88 94 344 357 344 110 176 172 156 155 238 194 205 20 208 248 2 95 125 148 102 91 88
104 292 317 273 215 123 69 60 209 218 271 1 41 60 16 11 110 66 44 18 0 4 111 105 145 266 51 30 78 163 51 141 101 42 89 229 180 341 88 90 125 142 126 125 116
78 40 306 321 86 61 72 242 256 225 349 59 95 39 69 352 61 61 13 327 322 33 142 126 104 2 321 32 26 93 147 42 24 139 164 264 289 235 194 213 211 196 166 146 124
62 60 278 37 60 48 138 234 279 305 130 78 72 57 75 49 50 53 336 313 3 339 60 52 82 308 49 26 319 356 20 57 111 97 150 165 266 220 203 200 210 202 156 147 150
102 61 295 69 53 31 169 197 316 2 13 62 84 73 69 43 47 71 57 320 337 317 56 12 124 88 128 311 63 70 59 92 112 205 56 123 281 335 234 214 196 135 137 143 163
89 215 330 91 114 299 298 55 64 29 15 50 34 46 41 74 91 73 55 15 10 47 76 142 16 58 357 355 7 51 14 93 92 80 42 97 282 356 51 58 47 115 133 141 152
85 49 337 53 105 141 95 15 99 44 58 60 76 52 64 30 14 68 18 341 14 57 51 83 63 149 185 194 147 66 17 33 85 69 180 228 292 315 24 80 105 135 135 153 166
30 203 187 340 5 77 76 347 52 28 44 28 35 29 75 62 20 28 2 359 350 13 42 83 50 44 47 78 78 71 55 42 60 151 97 285 291 338 320 167 160 133 147 161 187
119 126 27 56 288 120 24 12 87 75 40 359 97 34 52 90 65 82 7 33 28 333 56 20 121 29 52 76 74 62 39 45 34 22 56 18 345 280 31 111 133 154 173 193 223
344 26 101 312 3 63 324 137 117 128 35 67 157 80 44 1 81 106 96 88 72 49 63 64 95 30 205 326 328 34 1 35 59 29 350 32 306 190 41 131 158 188 207 254 240